This demonstration page uses our WeatherBlox Daily Observations layout. Learn more.

Left ArrowRight Arrow

44.89941, -97.11507

Hourly Observations for May 30, 2021

Temp ( °F °C ) Dew Point ( °F °C ) Humidity (%) Winds ( mph kmh ) Pressure ( in mb ) Visibility ( mi km ) Precip ( " mm )
12:53 am 00:53 Cloudy 54 12.2 49 9.4 83 83 Calm 30.12 1020 10 16 0.00 0.00
1:03 am 01:03 Cloudy 54 12.2 49 9.4 83 83 Calm 30.11 1020 10 16 0.00 0.00
1:53 am 01:53 Cloudy with Light Rain 53 11.7 50 10 89 89 SSE 5 7 30.11 1020 7 11 0.02 0.51
2:08 am 02:08 Cloudy 53 11.7 51 10.6 93 93 Calm 30.10 1019 10 16 0.00 0.00
2:31 am 02:31 Cloudy with Heavy Rain 53 11.7 51 10.6 93 93 S 10 17 30.09 1019 3 4 0.09 2.29
2:42 am 02:42 Cloudy with Light Rain 53 11.7 51 10.6 93 93 S 13 20 30.09 1019 4 6 0.11 2.79
2:53 am 02:53 Cloudy with Light Rain 53 11.7 51 10.6 93 93 S 6 9 30.11 1020 5 8 0.11 2.79
3:53 am 03:53 Mostly Cloudy 52 11.1 50 10 93 93 S 5 7 30.11 1020 8 13 0.01 0.25
4:18 am 04:18 Mostly Cloudy with Mist and Fog 50 10 49 9.4 96 96 SSE 3 6 30.11 1020 6 10 0.00 0.00
4:53 am 04:53 Cloudy with Mist and Fog 52 11.1 51 10.6 97 97 S 3 6 30.12 1020 6 10 0.00 0.00
5:53 am 05:53 Cloudy 53 11.7 51 10.6 93 93 Calm 30.13 1020 7 11 0.00 0.00
6:53 am 06:53 Partly Cloudy with Mist and Fog 53 11.7 52 11.1 96 96 Calm 30.14 1021 5 8 0.00 0.00
7:53 am 07:53 Sunny 56 13.3 54 12.2 93 93 WSW 7 11 30.14 1021 7 11 0.00 0.00
8:11 am 08:11 Mostly Sunny 57 13.9 54 12.2 90 90 W 5 7 30.11 1020 7 11 0.00 0.00
8:46 am 08:46 Mostly Cloudy 58 14.4 55 12.8 90 90 W 7 11 30.12 1020 8 13 0.00 0.00
8:53 am 08:53 Mostly Cloudy 57 13.9 54 12.2 90 90 W 6 9 30.14 1021 8 13 0.00 0.00
9:21 am 09:21 Partly Cloudy 58 14.4 55 12.8 90 90 WNW 6 9 30.12 1020 8 13 0.00 0.00
9:53 am 09:53 Mostly Sunny 59 15 54 12.2 83 83 VRB 5 7 30.14 1021 9 14 0.00 0.00
10:53 am 10:53 Sunny 63 17.2 54 12.2 73 73 NW 9 15 30.12 1020 10 16 0.00 0.00
11:53 am 11:53 Sunny 65 18.3 53 11.7 66 66 WNW 7 11 30.14 1021 10 16 0.00 0.00
12:53 pm 12:53 Sunny 67 19.4 52 11.1 59 59 NW 9 15 30.13 1020 10 16 0.00 0.00
1:53 pm 13:53 Sunny 70 21.1 47 8.3 44 44 WNW 8 13 30.12 1020 10 16 0.00 0.00
2:53 pm 14:53 Sunny 70 21.1 44 6.7 39 39 WNW 8 13 30.12 1020 10 16 0.00 0.00
3:53 pm 15:53 Sunny 70 21.1 41 5 35 35 VRB 5 7 30.11 1020 10 16 0.00 0.00
4:53 pm 16:53 Sunny 71 21.7 43 6.1 36 36 W 8 13 30.11 1020 10 16 0.00 0.00
5:53 pm 17:53 Sunny 71 21.7 40 4.4 32 32 Calm 30.11 1020 10 16 0.00 0.00
6:53 pm 18:53 Sunny 70 21.1 41 5 35 35 NW 3 6 30.10 1019 10 16 0.00 0.00
7:53 pm 19:53 Sunny 68 20 47 8.3 47 47 S 3 6 30.10 1019 10 16 0.00 0.00
8:53 pm 20:53 Sunny 61 16.1 48 8.9 63 63 SSW 7 11 30.11 1020 10 16 0.00 0.00
9:53 pm 21:53 Cloudy 59 15 50 10 72 72 SSW 6 9 30.12 1020 10 16 0.00 0.00
10:53 pm 22:53 Mostly Cloudy 61 16.1 48 8.9 63 63 SSW 5 7 30.11 1020 10 16 0.00 0.00
11:53 pm 23:53 Clear 55 12.8 46 7.8 72 72 SW 7 11 30.12 1020 10 16 0.00 0.00

Powered by AerisWeather